Time,TemperatureF,DewpointF,PressureIn,WindDirection,WindDirectionDegrees,WindSpeedMPH,WindSpeedGustMPH,Humidity,HourlyPrecipIn,Conditions,Clouds,dailyrainin,SoftwareType,DateUTC
2013-01-26 00:12:00,22.2,13.0,30.29,NNW,327,6.0,13.0,68,0.00,,,0.00,weatherlink.com 1.10,2013-01-26 06:12:00,
2013-01-26 00:27:00,21.6,11.0,30.29,NNW,328,7.0,17.0,64,0.00,,,0.00,weatherlink.com 1.10,2013-01-26 06:27:00,
2013-01-26 00:42:00,20.9,10.0,30.29,North,5,9.0,14.0,64,0.00,,,0.00,weatherlink.com 1.10,2013-01-26 06:42:00,
2013-01-26 00:57:00,20.1,9.0,30.30,NNW,346,7.0,16.0,63,0.00,,,0.00,weatherlink.com 1.10,2013-01-26 06:57:00,
2013-01-26 01:12:00,19.4,9.0,30.30,NNW,338,7.0,13.0,64,0.00,,,0.00,weatherlink.com 1.10,2013-01-26 07:12:00,
2013-01-26 01:28:00,18.9,8.0,30.29,NNW,338,6.0,16.0,62,0.00,,,0.00,weatherlink.com 1.10,2013-01-26 07:28:00,
2013-01-26 01:43:00,18.3,8.0,30.30,North,11,3.0,12.0,65,0.00,,,0.00,weatherlink.com 1.10,2013-01-26 07:43:00,
2013-01-26 01:58:00,17.7,8.0,30.31,NNW,346,3.0,8.0,66,0.00,,,0.00,weatherlink.com 1.10,2013-01-26 07:58:00,
2013-01-26 02:13:00,17.4,8.0,30.32,NNW,348,2.0,5.0,68,0.00,,,0.00,weatherlink.com 1.10,2013-01-26 08:13:00,
2013-01-26 02:28:00,16.8,8.0,30.32,NNW,329,1.0,4.0,69,0.00,,,0.00,weatherlink.com 1.10,2013-01-26 08:28:00,
2013-01-26 02:43:00,16.5,8.0,30.32,NW,310,3.0,3.0,69,0.00,,,0.00,weatherlink.com 1.10,2013-01-26 08:43:00,
2013-01-26 02:58:00,16.1,9.0,30.34,West,281,3.0,6.0,72,0.00,,,0.00,weatherlink.com 1.10,2013-01-26 08:58:00,
2013-01-26 03:13:00,15.8,8.0,30.34,NW,323,3.0,5.0,72,0.00,,,0.00,weatherlink.com 1.10,2013-01-26 09:13:00,
2013-01-26 03:28:00,15.4,8.0,30.34,WNW,302,3.0,5.0,73,0.00,,,0.00,weatherlink.com 1.10,2013-01-26 09:28:00,
2013-01-26 03:43:00,15.1,8.0,30.35,NNW,348,4.0,8.0,73,0.00,,,0.00,weatherlink.com 1.10,2013-01-26 09:43:00,
2013-01-26 03:58:00,15.1,8.0,30.35,North,351,1.0,7.0,73,0.00,,,0.00,weatherlink.com 1.10,2013-01-26 09:58:00,
2013-01-26 04:13:00,14.6,8.0,30.36,NW,313,0.0,5.0,74,0.00,,,0.00,weatherlink.com 1.10,2013-01-26 10:13:00,
2013-01-26 04:28:00,14.4,8.0,30.36,NNW,347,5.0,7.0,74,0.00,,,0.00,weatherlink.com 1.10,2013-01-26 10:28:00,
2013-01-26 04:43:00,14.0,7.0,30.36,NNW,338,3.0,5.0,75,0.00,,,0.00,weatherlink.com 1.10,2013-01-26 10:43:00,
2013-01-26 04:58:00,13.9,7.0,30.37,NNW,348,4.0,9.0,74,0.00,,,0.00,weatherlink.com 1.10,2013-01-26 10:58:00,
2013-01-26 05:13:00,13.5,7.0,30.37,North,355,2.0,6.0,75,0.00,,,0.00,weatherlink.com 1.10,2013-01-26 11:13:00,
2013-01-26 05:28:00,13.0,7.0,30.37,North,355,3.0,5.0,76,0.00,,,0.00,weatherlink.com 1.10,2013-01-26 11:28:00,
2013-01-26 05:43:00,12.7,7.0,30.38,North,5,0.0,6.0,78,0.00,,,0.00,weatherlink.com 1.10,2013-01-26 11:43:00,
2013-01-26 05:58:00,12.4,7.0,30.38,North,5,5.0,6.0,78,0.00,,,0.00,weatherlink.com 1.10,2013-01-26 11:58:00,
2013-01-26 06:13:00,12.4,7.0,30.38,NNW,348,5.0,7.0,78,0.00,,,0.00,weatherlink.com 1.10,2013-01-26 12:13:00,
2013-01-26 06:28:00,12.4,7.0,30.39,North,9,2.0,6.0,78,0.00,,,0.00,weatherlink.com 1.10,2013-01-26 12:28:00,
2013-01-26 06:43:00,12.0,6.0,30.39,North,9,1.0,3.0,78,0.00,,,0.00,weatherlink.com 1.10,2013-01-26 12:43:00,
2013-01-26 06:58:00,11.9,6.0,30.39,North,5,3.0,5.0,78,0.00,,,0.00,weatherlink.com 1.10,2013-01-26 12:58:00,
2013-01-26 07:13:00,11.8,6.0,30.40,North,351,0.0,3.0,78,0.00,,,0.00,weatherlink.com 1.10,2013-01-26 13:13:00,
2013-01-26 07:28:00,11.5,6.0,30.40,North,355,3.0,3.0,79,0.00,,,0.00,weatherlink.com 1.10,2013-01-26 13:28:00,
2013-01-26 07:43:00,11.6,7.0,30.41,North,355,2.0,3.0,80,0.00,,,0.00,weatherlink.com 1.10,2013-01-26 13:43:00,
2013-01-26 07:59:00,12.3,7.0,30.42,North,350,1.0,5.0,79,0.00,,,0.00,weatherlink.com 1.10,2013-01-26 13:59:00,
2013-01-26 08:14:00,13.4,7.0,30.42,North,10,4.0,5.0,77,0.00,,,0.00,weatherlink.com 1.10,2013-01-26 14:14:00,
2013-01-26 08:29:00,14.3,8.0,30.43,NNW,348,5.0,6.0,76,0.00,,,0.00,weatherlink.com 1.10,2013-01-26 14:29:00,
2013-01-26 08:44:00,15.0,8.0,30.44,North,360,5.0,6.0,75,0.00,,,0.00,weatherlink.com 1.10,2013-01-26 14:44:00,
2013-01-26 08:59:00,16.1,9.0,30.44,NE,46,1.0,6.0,74,0.00,,,0.00,weatherlink.com 1.10,2013-01-26 14:59:00,
2013-01-26 09:14:00,17.3,9.0,30.45,ENE,70,1.0,5.0,70,0.00,,,0.00,weatherlink.com 1.10,2013-01-26 15:14:00,
2013-01-26 09:29:00,18.4,10.0,30.45,NNE,30,2.0,4.0,69,0.00,,,0.00,weatherlink.com 1.10,2013-01-26 15:29:00,
2013-01-26 09:44:00,19.8,10.0,30.45,ENE,77,0.0,2.0,65,0.00,,,0.00,weatherlink.com 1.10,2013-01-26 15:44:00,
2013-01-26 09:59:00,20.2,10.0,30.46,ENE,67,1.0,3.0,65,0.00,,,0.00,weatherlink.com 1.10,2013-01-26 15:59:00,
2013-01-26 10:14:00,21.8,11.0,30.46,ENE,57,1.0,5.0,62,0.00,,,0.00,weatherlink.com 1.10,2013-01-26 16:14:00,
2013-01-26 10:29:00,23.1,11.0,30.45,ENE,59,0.0,3.0,60,0.00,,,0.00,weatherlink.com 1.10,2013-01-26 16:29:00,
2013-01-26 10:44:00,23.6,11.0,30.45,SW,228,2.0,5.0,58,0.00,,,0.00,weatherlink.com 1.10,2013-01-26 16:44:00,
2013-01-26 10:59:00,23.6,10.0,30.45,South,191,0.0,7.0,57,0.00,,,0.00,weatherlink.com 1.10,2013-01-26 16:59:00,
2013-01-26 11:14:00,24.8,11.0,30.45,ESE,123,3.0,5.0,56,0.00,,,0.00,weatherlink.com 1.10,2013-01-26 17:14:00,
2013-01-26 11:29:00,26.2,11.0,30.45,NE,35,3.0,7.0,53,0.00,,,0.00,weatherlink.com 1.10,2013-01-26 17:29:00,
2013-01-26 11:44:00,26.9,12.0,30.45,South,173,6.0,6.0,53,0.00,,,0.00,weatherlink.com 1.10,2013-01-26 17:44:00,
2013-01-26 11:59:00,27.4,12.0,30.44,SE,138,3.0,5.0,52,0.00,,,0.00,weatherlink.com 1.10,2013-01-26 17:59:00,
2013-01-26 12:14:00,27.5,12.0,30.43,SE,139,4.0,7.0,52,0.00,,,0.00,weatherlink.com 1.10,2013-01-26 18:14:00,
2013-01-26 12:29:00,27.6,11.0,30.42,SSE,154,4.0,9.0,51,0.00,,,0.00,weatherlink.com 1.10,2013-01-26 18:29:00,
2013-01-26 12:44:00,28.0,11.0,30.42,SE,132,4.0,8.0,50,0.00,,,0.00,weatherlink.com 1.10,2013-01-26 18:44:00,
2013-01-26 12:59:00,28.7,12.0,30.41,South,177,5.0,9.0,49,0.00,,,0.00,weatherlink.com 1.10,2013-01-26 18:59:00,
2013-01-26 13:14:00,29.0,11.0,30.41,South,191,3.0,7.0,48,0.00,,,0.00,weatherlink.com 1.10,2013-01-26 19:14:00,
2013-01-26 13:29:00,29.6,11.0,30.41,South,178,4.0,6.0,47,0.00,,,0.00,weatherlink.com 1.10,2013-01-26 19:29:00,
2013-01-26 13:44:00,29.9,11.0,30.40,SSE,161,5.0,5.0,46,0.00,,,0.00,weatherlink.com 1.10,2013-01-26 19:44:00,
2013-01-26 13:59:00,30.9,12.0,30.40,ESE,122,3.0,7.0,45,0.00,,,0.00,weatherlink.com 1.10,2013-01-26 19:59:00,
2013-01-26 14:14:00,30.8,11.0,30.39,NE,40,1.0,5.0,44,0.00,,,0.00,weatherlink.com 1.10,2013-01-26 20:14:00,
2013-01-26 14:29:00,32.0,12.0,30.39,ESE,119,3.0,5.0,44,0.00,,,0.00,weatherlink.com 1.10,2013-01-26 20:29:00,
2013-01-26 14:44:00,32.0,12.0,30.39,South,191,7.0,7.0,43,0.00,,,0.00,weatherlink.com 1.10,2013-01-26 20:44:00,
2013-01-26 14:59:00,32.2,11.0,30.38,SSE,156,4.0,5.0,42,0.00,,,0.00,weatherlink.com 1.10,2013-01-26 20:59:00,
2013-01-26 15:14:00,32.4,12.0,30.38,North,360,2.0,5.0,43,0.00,,,0.00,weatherlink.com 1.10,2013-01-26 21:14:00,
2013-01-26 15:29:00,33.0,14.0,30.38,ESE,121,3.0,5.0,45,0.00,,,0.00,weatherlink.com 1.10,2013-01-26 21:29:00,
2013-01-26 15:45:00,32.8,13.0,30.38,SSE,150,5.0,7.0,44,0.00,,,0.00,weatherlink.com 1.10,2013-01-26 21:45:00,
2013-01-26 16:00:00,32.4,13.0,30.37,SSE,151,4.0,7.0,45,0.00,,,0.00,weatherlink.com 1.10,2013-01-26 22:00:00,
2013-01-26 16:15:00,32.0,13.0,30.36,ESE,111,3.0,5.0,46,0.00,,,0.00,weatherlink.com 1.10,2013-01-26 22:15:00,
2013-01-26 16:30:00,31.6,13.0,30.36,ESE,107,0.0,4.0,47,0.00,,,0.00,weatherlink.com 1.10,2013-01-26 22:30:00,
2013-01-26 16:45:00,31.2,13.0,30.37,ESE,102,1.0,3.0,48,0.00,,,0.00,weatherlink.com 1.10,2013-01-26 22:45:00,
2013-01-26 17:00:00,30.3,13.0,30.38,East,91,2.0,3.0,49,0.00,,,0.00,weatherlink.com 1.10,2013-01-26 23:00:00,
2013-01-26 17:15:00,29.5,13.0,30.38,East,101,0.0,2.0,50,0.00,,,0.00,weatherlink.com 1.10,2013-01-26 23:15:00,
2013-01-26 17:30:00,28.8,14.0,30.38,East,101,0.0,0.0,54,0.00,,,0.00,weatherlink.com 1.10,2013-01-26 23:30:00,
2013-01-26 17:45:00,27.9,14.0,30.38,ESE,105,0.0,2.0,56,0.00,,,0.00,weatherlink.com 1.10,2013-01-26 23:45:00,
2013-01-26 18:00:00,28.2,14.0,30.37,ESE,111,0.0,5.0,55,0.00,,,0.00,weatherlink.com 1.10,2013-01-27 00:00:00,
2013-01-26 18:15:00,28.6,14.0,30.37,SE,141,1.0,5.0,54,0.00,,,0.00,weatherlink.com 1.10,2013-01-27 00:15:00,
2013-01-26 18:30:00,28.5,14.0,30.38,ESE,120,1.0,4.0,55,0.00,,,0.00,weatherlink.com 1.10,2013-01-27 00:30:00,
2013-01-26 18:45:00,28.4,14.0,30.38,ESE,115,1.0,3.0,56,0.00,,,0.00,weatherlink.com 1.10,2013-01-27 00:45:00,
2013-01-26 19:00:00,28.8,14.0,30.38,ESE,115,2.0,5.0,55,0.00,,,0.00,weatherlink.com 1.10,2013-01-27 01:00:00,
2013-01-26 19:15:00,29.1,15.0,30.38,SE,130,2.0,5.0,55,0.00,,,0.00,weatherlink.com 1.10,2013-01-27 01:15:00,
2013-01-26 19:30:00,29.1,14.0,30.38,SE,128,1.0,7.0,54,0.00,,,0.00,weatherlink.com 1.10,2013-01-27 01:30:00,
2013-01-26 19:45:00,29.2,14.0,30.38,SE,126,2.0,5.0,54,0.00,,,0.00,weatherlink.com 1.10,2013-01-27 01:45:00,
2013-01-26 20:00:00,29.0,14.0,30.38,SE,135,3.0,6.0,53,0.00,,,0.00,weatherlink.com 1.10,2013-01-27 02:00:00,
2013-01-26 20:15:00,28.8,14.0,30.37,SE,133,1.0,8.0,54,0.00,,,0.00,weatherlink.com 1.10,2013-01-27 02:15:00,
2013-01-26 20:30:00,28.3,14.0,30.37,ESE,119,2.0,7.0,56,0.00,,,0.00,weatherlink.com 1.10,2013-01-27 02:30:00,
2013-01-26 20:45:00,27.9,14.0,30.37,SE,138,1.0,5.0,57,0.00,,,0.00,weatherlink.com 1.10,2013-01-27 02:45:00,
2013-01-26 21:00:00,27.6,14.0,30.37,SE,133,4.0,6.0,58,0.00,,,0.00,weatherlink.com 1.10,2013-01-27 03:00:00,
2013-01-26 21:15:00,27.4,15.0,30.37,SE,134,1.0,7.0,59,0.00,,,0.00,weatherlink.com 1.10,2013-01-27 03:15:00,
2013-01-26 21:30:00,27.4,14.0,30.37,ESE,121,4.0,8.0,58,0.00,,,0.00,weatherlink.com 1.10,2013-01-27 03:30:00,
2013-01-26 21:45:00,27.5,15.0,30.38,ESE,119,1.0,8.0,59,0.00,,,0.00,weatherlink.com 1.10,2013-01-27 03:45:00,
2013-01-26 22:00:00,27.2,15.0,30.38,SE,140,5.0,6.0,60,0.00,,,0.00,weatherlink.com 1.10,2013-01-27 04:00:00,
2013-01-26 22:15:00,27.2,15.0,30.38,SE,133,4.0,7.0,61,0.00,,,0.00,weatherlink.com 1.10,2013-01-27 04:15:00,
2013-01-26 22:30:00,27.6,15.0,30.38,ESE,117,2.0,7.0,60,0.00,,,0.00,weatherlink.com 1.10,2013-01-27 04:30:00,
2013-01-26 22:45:00,27.6,15.0,30.38,SSE,148,3.0,5.0,60,0.00,,,0.00,weatherlink.com 1.10,2013-01-27 04:45:00,
2013-01-26 23:00:00,27.8,15.0,30.37,SE,134,6.0,9.0,59,0.00,,,0.00,weatherlink.com 1.10,2013-01-27 05:00:00,
2013-01-26 23:15:00,27.8,15.0,30.38,SE,132,2.0,8.0,59,0.00,,,0.00,weatherlink.com 1.10,2013-01-27 05:15:00,
2013-01-26 23:30:00,27.3,15.0,30.38,SE,134,4.0,8.0,60,0.00,,,0.00,weatherlink.com 1.10,2013-01-27 05:30:00,
2013-01-26 23:45:00,27.0,15.0,30.38,SE,129,2.0,7.0,61,0.00,,,0.00,weatherlink.com 1.10,2013-01-27 05:45:00,